Location: Campolattaro
(41.2833°N, 14.7333°E)
Time: 23:49:04
(UTC+00:00)

Cosmos 2221 - Pass Details

Date: 19 May 2025
Orbit: 572 x 592 km, 82.5° (Epoch: 22 June)

Event Time Altitude Azimuth Distance (km) Brightness Sun altitude
Exits shadow 21:37:49 28° 267° (W) 1,100 3.9 -26.0°
Maximum altitude 21:38:27 29° 284° (WNW) 1,066 4.0 -26.1°
Drops below altitude 10° 21:42:08 10° 346° (NNW) 1,895 6.1 -26.3°
Sets 21:44:33 0° 357° (N) 2,796 7.1 -26.4°
